Back to catalog

OPS 9328

IDSCS 15

AliveMilitaryMEO
NORAD 2655·PAYLOAD·🇺🇸 United States

Launched Jan 18, 1967 from Cape Canaveral Space Force Station

Loading…

Next Passes (next 24 hours)

TLE

FreshSource: Space-Track

Epoch: Sep 13, 2026, 04:47 UTC

1 02655U 67003H   26256.19934046 -.00000127  00000-0  00000-0 0  9992
2 02655   8.2292  46.9819 0072152  42.1354 246.5130  1.07230477140148

Track OPS 9328 in real time with AllMySat

Download on the App Store